(202553) = 2006 BS199 = 2006 DY197

Discovered at Mount Lemmon on 2006-02-25 by Mt. Lemmon Survey.

Orbit

Orbit type: Main Belt

Note: WebGL enabled browser required.

epoch2024-03-31.0
epoch JD2460400.5
perihelion date2021-05-23.28015
perihelion JD2459357.78015
argument of perihelion (°)288.24180
ascending node (°)357.23980
inclination (°)2.10396
eccentricity0.0438809
perihelion distance (AU)2.2118085
Tisserand w.r.t. Jupiter3.6
ΔV w.r.t. Earth (km/sec)9.2
semimajor axis (AU)2.3133190
mean anomaly (°)292.09101
mean daily motion (°/day)0.28012420
aphelion distance (AU)2.415
period (years)3.52
P-vector [x]0.26695970
P-vector [y]-0.86973599
P-vector [z]-0.41508052
Q-vector [x]0.96370607
Q-vector [y]0.24013774
Q-vector [z]0.11663820
absolute magnitude17.09
phase slope0.15
uncertainty0
referenceMPEC 2024-F50
observations used347
oppositions16
arc length (days)9132
first opposition used1999
last opposition used2024
residual rms (arc-secs)0.76
perturbers coarse indicatorM-v
perturbers precise indicator003Ek
first observation date used1999-03-19.0
last observation date used2024-03-19.0
computer nameMPCLINUX
JD of orbit computation2456909.136102
perihelion JD uncertainty (days)1.9587E-04
argument of perihelion uncertainty (°)1.0838E-04
ascending node uncertainty (°)9.3436E-05
inclination uncertainty (°)4.7270E-06
eccentricity uncertainty 3.4614E-08
perihelion distance uncertainty (AU)8.0833E-08
Minimum Orbit Intersection Distances (in AU)
for orbit epoch: 2460400.5, reference: E2024-GD4
Mercury1.75144
Venus1.4841
Earth1.19632
Mars0.68251
Jupiter2.62589
Saturn6.63522
Uranus16.0711
Neptune27.4743

Observations

355 total observations over interval: 1999 03 19.16904 – 2024 03 19.629690
These data are available for download (format description).

Date (UT) J2000 RA J2000 Dec Magn Location Ref
1999 03 19.16904 11 12 28.33 +05 30 26.6 19.9 V 691 – Steward Observatory, Kitt Peak-Spacewatch MPS 178591
1999 03 19.19020 11 12 27.09 +05 30 33.1 19.7 V 691 – Steward Observatory, Kitt Peak-Spacewatch MPS 178591
1999 03 19.21509 11 12 25.62 +05 30 39.9 19.9 V 691 – Steward Observatory, Kitt Peak-Spacewatch MPS 178591
2000 08 07.38771 21 56 32.80 -14 57 48.5 20.8   608 – Haleakala-AMOS MPS 168869
2000 08 07.39830 21 56 32.19 -14 57 51.3 21.0   608 – Haleakala-AMOS MPS 168869
2000 08 07.40956 21 56 31.52 -14 57 53.4 20.7   608 – Haleakala-AMOS MPS 168869
2000 10 23.02528 21 28 05.17 -15 37 27.1 21.1 R I03 – European Southern Obs., La Silla--ASTROVIRTEL MPS 168869
2000 10 23.03676 21 28 05.72 -15 37 23.4 21.3 R I03 – European Southern Obs., La Silla--ASTROVIRTEL MPS 168869
2000 10 23.04796 21 28 06.18 -15 37 20.2 20.7 R I03 – European Southern Obs., La Silla--ASTROVIRTEL MPS 168869
2004 10 04.34841 02 30 58.83 +16 46 12.5 20.2 V 691 – Steward Observatory, Kitt Peak-Spacewatch MPS 169199
2004 10 04.38283 02 30 57.27 +16 46 08.5 20.3 V 691 – Steward Observatory, Kitt Peak-Spacewatch MPS 169199
2004 10 04.41143 02 30 55.97 +16 46 05.0 20.2 V 691 – Steward Observatory, Kitt Peak-Spacewatch MPS 169199
2004 10 12.33048 02 24 28.96 +16 25 24.9 19.9 V 691 – Steward Observatory, Kitt Peak-Spacewatch MPS 169199
2004 10 12.35724 02 24 27.44 +16 25 19.7 19.9 V 691 – Steward Observatory, Kitt Peak-Spacewatch MPS 169199
2004 10 12.38422 02 24 25.92 +16 25 14.6 19.9 V 691 – Steward Observatory, Kitt Peak-Spacewatch MPS 169199
2004 10 21.26639 02 15 48.65 +15 52 41.7 19.6   704 – Lincoln Laboratory ETS, New Mexico MPS 169199
2004 10 21.27812 02 15 47.91 +15 52 39.6 19.9   704 – Lincoln Laboratory ETS, New Mexico MPS 169199
2004 10 21.28996 02 15 47.16 +15 52 36.7 20.0   704 – Lincoln Laboratory ETS, New Mexico MPS 169199
2004 10 21.30171 02 15 46.41 +15 52 33.1 20.1   704 – Lincoln Laboratory ETS, New Mexico MPS 169199
2004 10 21.31349 02 15 45.69 +15 52 32.1 20.3   704 – Lincoln Laboratory ETS, New Mexico MPS 169199
2006 01 07.48379 11 29 04.92 +04 47 18.6 20.9 V G96 – Mt. Lemmon Survey MPS 168869
2006 01 07.49010 11 29 04.99 +04 47 17.8 21.1 V G96 – Mt. Lemmon Survey MPS 168869
2006 01 07.49659 11 29 05.10 +04 47 17.1 21.0 V G96 – Mt. Lemmon Survey MPS 168869
2006 01 07.50299 11 29 05.24 +04 47 16.1 20.8 V G96 – Mt. Lemmon Survey MPS 168869
2006 01 30.45730 11 28 47.23 +04 42 14.4 20.8 V 691 – Steward Observatory, Kitt Peak-Spacewatch MPS 162983
2006 01 30.47462 11 28 46.84 +04 42 16.1 20.8 V 691 – Steward Observatory, Kitt Peak-Spacewatch MPS 162983
2006 01 30.49194 11 28 46.43 +04 42 17.8 20.7 V 691 – Steward Observatory, Kitt Peak-Spacewatch MPS 162983
2006 02 01.43191 11 28 02.06 +04 46 06.8 20.1 V G96 – Mt. Lemmon Survey MPS 162983
2006 02 01.43855 11 28 01.88 +04 46 07.6 20.1 V G96 – Mt. Lemmon Survey MPS 162983
2006 02 01.44519 11 28 01.74 +04 46 08.4 20.8 V G96 – Mt. Lemmon Survey MPS 162983
2006 02 01.45186 11 28 01.56 +04 46 09.0 20.9 V G96 – Mt. Lemmon Survey MPS 162983
2006 02 07.45043 11 25 02.71 +05 01 56.1   691 – Steward Observatory, Kitt Peak-Spacewatch MPS 169199
2006 02 07.46778 11 25 02.08 +05 01 59.3   691 – Steward Observatory, Kitt Peak-Spacewatch MPS 169199
2006 02 07.48512 11 25 01.44 +05 02 02.3   691 – Steward Observatory, Kitt Peak-Spacewatch MPS 169199
2006 02 25.30140 11 10 59.34 +06 17 13.7 19.8 V G96 – Mt. Lemmon Survey MPS 166368
2006 02 25.30787 11 10 58.94 +06 17 15.9 19.5 V G96 – Mt. Lemmon Survey MPS 166368
2006 02 25.31440 11 10 58.54 +06 17 17.8 19.5 V G96 – Mt. Lemmon Survey MPS 166368
2006 02 25.32100 11 10 58.15 +06 17 19.7 19.6 V G96 – Mt. Lemmon Survey MPS 166368
2006 03 05.29823 11 03 07.12 +06 58 27.1 20.2   704 – Lincoln Laboratory ETS, New Mexico MPS 166369
2006 03 05.31004 11 03 06.46 +06 58 30.0 19.8   704 – Lincoln Laboratory ETS, New Mexico MPS 166369
2006 03 05.32183 11 03 05.67 +06 58 32.8 20.1   704 – Lincoln Laboratory ETS, New Mexico MPS 166369
2006 03 05.33360 11 03 04.97 +06 58 37.1 20.3   704 – Lincoln Laboratory ETS, New Mexico MPS 166369
2006 03 05.33374 11 03 04.95 +06 58 37.0 18.9 C 704 – Lincoln Laboratory ETS, New Mexico MPS 294342
2006 03 05.34518 11 03 04.24 +06 58 41.5 18.8 C 704 – Lincoln Laboratory ETS, New Mexico MPS 294342
2006 03 05.36804 11 03 02.87 +06 58 47.1 19.2 C 704 – Lincoln Laboratory ETS, New Mexico MPS 294342
2006 03 06.37100 11 02 02.50 +07 03 58.6 19.1 V G96 – Mt. Lemmon Survey MPS 166369
2006 03 06.37520 11 02 02.18 +07 03 59.6 19.5 V G96 – Mt. Lemmon Survey MPS 166369
2006 03 06.37942 11 02 01.89 +07 04 00.9 19.6 V G96 – Mt. Lemmon Survey MPS 166369
2006 03 06.38354 11 02 01.64 +07 04 02.5 19.5 V G96 – Mt. Lemmon Survey MPS 166369
2006 04 07.15630 10 36 42.04 +09 01 39.8 20.4 V G96 – Mt. Lemmon Survey MPS 168869
2006 04 07.16176 10 36 41.90 +09 01 40.6 20.5 V G96 – Mt. Lemmon Survey MPS 168869
2006 04 07.16716 10 36 41.72 +09 01 41.2 20.1 V G96 – Mt. Lemmon Survey MPS 168869
2006 04 07.17267 10 36 41.58 +09 01 41.2 20.1 V G96 – Mt. Lemmon Survey MPS 168869
2006 05 03.19391 10 35 27.34 +08 43 53.6 20.8 V G96 – Mt. Lemmon Survey MPS 170872
2006 05 03.19999 10 35 27.45 +08 43 52.6 19.9 V G96 – Mt. Lemmon Survey MPS 170872
2006 05 03.20598 10 35 27.56 +08 43 52.1 20.9 V G96 – Mt. Lemmon Survey MPS 170872
2006 05 03.21202 10 35 27.70 +08 43 50.9 20.9 V G96 – Mt. Lemmon Survey MPS 170872
2006 05 24.18910 10 47 29.76 +07 16 30.1 21.2 V G96 – Mt. Lemmon Survey MPS 172073
2006 05 24.19360 10 47 29.97 +07 16 28.8 21.1 V G96 – Mt. Lemmon Survey MPS 172073
2006 05 24.19816 10 47 30.19 +07 16 27.4 21.2 V G96 – Mt. Lemmon Survey MPS 172073
2006 05 24.20266 10 47 30.40 +07 16 26.1 21.5 V G96 – Mt. Lemmon Survey MPS 172073
2007 08 06.71134 21 28 17.15 -17 35 21.9 20.7 R D35 – Lulin Observatory MPS 212630
2007 08 06.72029 21 28 16.59 -17 35 24.0 20.6 R D35 – Lulin Observatory MPS 212630
2007 08 06.72934 21 28 16.03 -17 35 25.1 21.5 R D35 – Lulin Observatory MPS 212630
2007 08 08.22660 21 26 46.72 -17 41 10.3 19.8   704 – Lincoln Laboratory ETS, New Mexico MPS 212630
2007 08 08.23878 21 26 45.92 -17 41 11.1 20.0   704 – Lincoln Laboratory ETS, New Mexico MPS 212630
2007 08 08.25096 21 26 45.25 -17 41 14.6 19.4   704 – Lincoln Laboratory ETS, New Mexico MPS 212630
2007 08 08.26310 21 26 44.44 -17 41 16.5 19.5   704 – Lincoln Laboratory ETS, New Mexico MPS 212630
2008 11 24.49123 07 06 21.85 +25 47 13.1   691 – Steward Observatory, Kitt Peak-Spacewatch MPS 266463
2008 11 24.50633 07 06 21.44 +25 47 14.5   691 – Steward Observatory, Kitt Peak-Spacewatch MPS 266463
2008 11 24.52142 07 06 21.06 +25 47 15.7   691 – Steward Observatory, Kitt Peak-Spacewatch MPS 266463
2008 12 02.44598 07 02 03.33 +26 01 14.3 20.6 V 691 – Steward Observatory, Kitt Peak-Spacewatch MPS 267554
2008 12 02.46364 07 02 02.55 +26 01 16.0 20.7 V 691 – Steward Observatory, Kitt Peak-Spacewatch MPS 267554
2008 12 02.48128 07 02 01.83 +26 01 17.9 21.1 V 691 – Steward Observatory, Kitt Peak-Spacewatch MPS 267554
2008 12 30.26509 06 33 50.49 +26 43 03.1 19.2   704 – Lincoln Laboratory ETS, New Mexico MPS 271712
2008 12 30.27829 06 33 49.45 +26 43 04.1 19.7   704 – Lincoln Laboratory ETS, New Mexico MPS 271712
2008 12 30.29103 06 33 48.55 +26 43 04.7 19.8   704 – Lincoln Laboratory ETS, New Mexico MPS 271712
2008 12 31.12923 06 32 48.89 +26 43 37.8 20.0 V 691 – Steward Observatory, Kitt Peak-Spacewatch MPS 271712
2008 12 31.14736 06 32 47.57 +26 43 38.5 19.9 V 691 – Steward Observatory, Kitt Peak-Spacewatch MPS 271712
2008 12 31.16574 06 32 46.24 +26 43 39.4 19.8 V 691 – Steward Observatory, Kitt Peak-Spacewatch MPS 271712
2010 05 11.31594 15 25 50.01 -21 58 40.8 19.3 V G96 – Mt. Lemmon Survey MPS 327249
2010 05 11.32306 15 25 49.54 -21 58 39.4 19.2 V G96 – Mt. Lemmon Survey MPS 327249
2010 05 11.33024 15 25 49.08 -21 58 38.5 19.2 V G96 – Mt. Lemmon Survey MPS 327249
2010 05 11.33737 15 25 48.61 -21 58 37.1 19.3 V G96 – Mt. Lemmon Survey MPS 327249
2010 05 18.58854 15 18 11.26 -21 36 00.1 19.1 V E12 – Siding Spring Survey MPS 328488
2010 05 18.59998 15 18 10.62 -21 35 58.0 18.9 V E12 – Siding Spring Survey MPS 328488
2010 05 18.61138 15 18 09.79 -21 35 56.3 19.2 V E12 – Siding Spring Survey MPS 328488
